TimeCST,TemperatureF,Dew PointF,Humidity,Sea Level PressureIn,VisibilityMPH,Wind Direction,Wind SpeedMPH,Gust SpeedMPH,PrecipitationIn,Events,Conditions,WindDirDegrees,DateUTC
12:55 AM,31.6,22.5,69,30.26,10.0,SSW,18.4,-,N/A,,Clear,200,2012-11-16 06:55:00
1:55 AM,31.8,21.7,66,30.24,10.0,SSW,17.3,-,N/A,,Clear,200,2012-11-16 07:55:00
2:55 AM,30.6,20.3,66,30.22,10.0,SSW,16.1,-,N/A,,Clear,200,2012-11-16 08:55:00
3:55 AM,30.4,21.0,68,30.19,10.0,South,15.0,-,N/A,,Clear,190,2012-11-16 09:55:00
4:55 AM,30.2,22.3,72,30.16,10.0,SSW,17.3,-,N/A,,Clear,200,2012-11-16 10:55:00
5:55 AM,29.7,22.5,75,30.15,10.0,SSW,13.8,-,N/A,,Clear,200,2012-11-16 11:55:00
6:55 AM,28.9,22.6,77,30.13,10.0,South,12.7,-,N/A,,Clear,190,2012-11-16 12:55:00
7:55 AM,29.8,23.7,78,30.12,10.0,South,16.1,-,N/A,,Clear,190,2012-11-16 13:55:00
8:55 AM,30.0,24.1,79,30.12,10.0,SE,9.2,-,N/A,,Clear,130,2012-11-16 14:55:00
9:55 AM,32.4,25.7,76,30.09,10.0,South,16.1,-,N/A,,Clear,190,2012-11-16 15:55:00
10:55 AM,34.9,27.3,74,30.06,10.0,South,17.3,24.2,N/A,,Clear,190,2012-11-16 16:55:00
11:55 AM,34.7,27.7,76,30.02,10.0,South,12.7,-,N/A,,Clear,180,2012-11-16 17:55:00
12:55 PM,35.8,28.8,76,30.02,10.0,South,11.5,-,N/A,,Clear,190,2012-11-16 18:55:00
1:55 PM,37.0,29.7,75,30.02,10.0,SSW,8.1,-,N/A,,Clear,200,2012-11-16 19:55:00
2:55 PM,37.4,30.0,75,30.00,10.0,South,10.4,-,N/A,,Clear,180,2012-11-16 20:55:00
3:55 PM,36.5,30.2,78,30.02,10.0,South,8.1,-,N/A,,Clear,190,2012-11-16 21:55:00
4:55 PM,34.5,29.3,81,30.02,10.0,Calm,Calm,-,N/A,,Clear,0,2012-11-16 22:55:00
5:55 PM,31.1,27.5,87,30.02,10.0,South,6.9,-,N/A,,Clear,180,2012-11-16 23:55:00
6:55 PM,28.2,25.9,91,30.03,10.0,Calm,Calm,-,N/A,,Clear,0,2012-11-17 00:55:00
7:55 PM,24.4,23.7,97,30.03,10.0,South,3.5,-,N/A,,Clear,170,2012-11-17 01:55:00
8:28 PM,23.0,21.2,93,30.03,8.0,SSW,4.6,-,N/A,,Clear,210,2012-11-17 02:28:00
8:31 PM,23.0,21.2,93,30.03,9.0,SSW,4.6,-,N/A,,Clear,210,2012-11-17 02:31:00
8:55 PM,22.5,21.9,98,30.04,10.0,SW,4.6,-,N/A,,Clear,230,2012-11-17 02:55:00
9:55 PM,21.7,20.8,96,30.04,10.0,SW,5.8,-,N/A,,Clear,220,2012-11-17 03:55:00
10:55 PM,23.4,22.8,98,30.04,10.0,WSW,8.1,-,N/A,,Clear,240,2012-11-17 04:55:00
11:55 PM,22.5,21.6,96,30.04,10.0,SW,3.5,-,N/A,,Clear,230,2012-11-17 05:55:00